M I D A S
Marine Information and Data Acquisition System
Tripno 1294 of the Zeeleeuw from 2007-06-18 08:15:25 to 2007-06-18 15:08:36
Back to CruiseResearch ActivitiesStationsMapUnderway DataData graphs

EquipmentUnitsComment
TimeDGPSUTC
LatitudeDGPSDM.mWGS84
LongitudeDGPSDM.mWGS84
TemperatureSBE03/SBE38deg celciusITS90
ConductivitySBE21S/mITS90
SalinitySBE21 Practical Salinity Units
ChlorophylAChelsea fluorimeterg/lCalibrated in Aceton
Missing or incorrect values are displayed as -999
Sea surface data collected by the RV Zeeleeuw from 2007-06-18 08:18:21 to 2007-06-18 15:20:12
Time Latitude Longitude Temperature Conductivity Salinity ChlorophylA
2007-06-18 08:19:26 51°13.614 2°56.038 -999 -999 -999 -999
2007-06-18 08:20:26 51°13.642 2°55.944 -999 -999 -999 -999
2007-06-18 08:21:26 51°13.675 2°55.838 -999 -999 -999 -999
2007-06-18 08:22:26 51°13.684 2°55.77 -999 -999 -999 -999
2007-06-18 08:23:26 51°13.684 2°55.743 -999 -999 -999 -999
2007-06-18 08:24:26 51°13.712 2°55.751 -999 -999 -999 -999
2007-06-18 08:25:26 51°13.775 2°55.686 -999 -999 -999 -999
2007-06-18 08:26:26 51°13.871 2°55.607 -999 -999 -999 -999
2007-06-18 08:27:26 51°13.992 2°55.517 -999 -999 -999 -999
2007-06-18 08:28:26 51°14.122 2°55.416 -999 -999 -999 -999
2007-06-18 08:29:26 51°14.242 2°55.29 -999 -999 -999 -999
2007-06-18 08:30:26 51°14.348 2°55.099 -999 -999 -999 -999
2007-06-18 08:31:26 51°14.416 2°54.786 -999 -999 -999 -999
2007-06-18 08:32:26 51°14.374 2°54.432 -999 -999 -999 -999
2007-06-18 08:33:26 51°14.271 2°54.112 -999 -999 -999 -999
2007-06-18 08:34:26 51°14.161 2°53.793 -999 -999 -999 -999
2007-06-18 08:35:26 51°14.055 2°53.466 -999 -999 -999 -999
2007-06-18 08:36:26 51°13.952 2°53.131 -999 -999 -999 -999
2007-06-18 08:37:26 51°13.831 2°52.808 -999 -999 -999 -999
2007-06-18 08:38:26 51°13.712 2°52.483 -999 -999 -999 -999
2007-06-18 08:39:26 51°13.598 2°52.151 -999 -999 -999 -999
2007-06-18 08:40:26 51°13.485 2°51.818 -999 -999 -999 -999
2007-06-18 08:41:26 51°13.37 2°51.488 -999 -999 -999 -999
2007-06-18 08:42:26 51°13.253 2°51.159 -999 -999 -999 -999
2007-06-18 08:43:26 51°13.137 2°50.827 -999 -999 -999 -999
2007-06-18 08:44:26 51°13.022 2°50.494 -999 -999 -999 -999
2007-06-18 08:45:26 51°12.906 2°50.161 -999 -999 -999 -999
2007-06-18 08:46:26 51°12.788 2°49.829 -999 -999 -999 -999
2007-06-18 08:47:26 51°12.672 2°49.498 -999 -999 -999 -999
2007-06-18 08:48:26 51°12.558 2°49.167 -999 -999 -999 -999
2007-06-18 08:49:26 51°12.442 2°48.841 -999 -999 -999 -999
2007-06-18 08:50:26 51°12.327 2°48.514 -999 -999 -999 -999
2007-06-18 08:51:26 51°12.213 2°48.186 -999 -999 -999 -999
2007-06-18 08:52:26 51°12.099 2°47.859 -999 -999 -999 -999
2007-06-18 08:53:26 51°11.984 2°47.534 -999 -999 -999 -999
2007-06-18 08:54:26 51°11.872 2°47.208 -999 -999 -999 -999
2007-06-18 08:55:26 51°11.759 2°46.886 -999 -999 -999 -999
2007-06-18 08:56:26 51°11.659 2°46.552 -999 -999 -999 -999
2007-06-18 08:57:26 51°11.583 2°46.201 -999 -999 -999 -999
2007-06-18 08:58:26 51°11.505 2°45.849 -999 -999 -999 -999
2007-06-18 08:59:26 51°11.434 2°45.493 -999 -999 -999 -999
2007-06-18 09:00:26 51°11.363 2°45.138 -999 -999 -999 -999
2007-06-18 09:01:26 51°11.272 2°44.795 -999 -999 -999 -999
2007-06-18 09:02:26 51°11.175 2°44.456 -999 -999 -999 -999
2007-06-18 09:03:26 51°11.078 2°44.117 -999 -999 -999 -999
2007-06-18 09:04:26 51°10.982 2°43.777 -999 -999 -999 -999
2007-06-18 09:05:26 51°10.887 2°43.437 -999 -999 -999 -999
2007-06-18 09:06:26 51°10.791 2°43.098 -999 -999 -999 -999
2007-06-18 09:07:26 51°10.695 2°42.759 -999 -999 -999 -999
2007-06-18 09:08:26 51°10.6 2°42.42 -999 -999 -999 -999
2007-06-18 09:09:26 51°10.506 2°42.082 -999 -999 -999 -999
2007-06-18 09:10:26 51°10.41 2°41.746 -999 -999 -999 -999
2007-06-18 09:11:26 51°10.318 2°41.408 -999 -999 -999 -999
2007-06-18 09:12:26 51°10.224 2°41.071 -999 -999 -999 -999
2007-06-18 09:13:26 51°10.129 2°40.735 -999 -999 -999 -999
2007-06-18 09:14:26 51°10.036 2°40.398 -999 -999 -999 -999
2007-06-18 09:15:26 51°9.945 2°40.06 -999 -999 -999 -999
2007-06-18 09:16:26 51°9.849 2°39.726 -999 -999 -999 -999
2007-06-18 09:17:26 51°9.782 2°39.376 -999 -999 -999 -999
2007-06-18 09:18:26 51°9.711 2°39.026 -999 -999 -999 -999
2007-06-18 09:19:26 51°9.642 2°38.676 -999 -999 -999 -999
2007-06-18 09:20:26 51°9.571 2°38.326 -999 -999 -999 -999
2007-06-18 09:21:26 51°9.501 2°37.975 -999 -999 -999 -999
2007-06-18 09:22:26 51°9.421 2°37.629 -999 -999 -999 -999
2007-06-18 09:23:26 51°9.34 2°37.283 -999 -999 -999 -999
2007-06-18 09:24:26 51°9.259 2°36.934 -999 -999 -999 -999
2007-06-18 09:25:26 51°9.178 2°36.585 -999 -999 -999 -999
2007-06-18 09:26:26 51°9.09 2°36.237 -999 -999 -999 -999
2007-06-18 09:27:26 51°8.997 2°35.891 -999 -999 -999 -999
2007-06-18 09:28:26 51°8.906 2°35.54 -999 -999 -999 -999
2007-06-18 09:29:26 51°8.819 2°35.185 -999 -999 -999 -999
2007-06-18 09:30:26 51°8.739 2°34.822 -999 -999 -999 -999
2007-06-18 09:31:26 51°8.661 2°34.458 -999 -999 -999 -999
2007-06-18 09:32:26 51°8.583 2°34.094 -999 -999 -999 -999
2007-06-18 09:33:26 51°8.505 2°33.734 -999 -999 -999 -999
2007-06-18 09:34:26 51°8.417 2°33.381 -999 -999 -999 -999
2007-06-18 09:35:26 51°8.328 2°33.029 -999 -999 -999 -999
2007-06-18 09:36:26 51°8.238 2°32.679 -999 -999 -999 -999
2007-06-18 09:37:26 51°8.146 2°32.33 -999 -999 -999 -999
2007-06-18 09:38:26 51°8.027 2°32 -999 -999 -999 -999
2007-06-18 09:39:26 51°7.905 2°31.672 -999 -999 -999 -999
2007-06-18 09:40:26 51°7.785 2°31.344 -999 -999 -999 -999
2007-06-18 09:41:26 51°7.663 2°31.015 -999 -999 -999 -999
2007-06-18 09:42:26 51°7.506 2°30.733 -999 -999 -999 -999
2007-06-18 09:43:26 51°7.299 2°30.557 -999 -999 -999 -999
2007-06-18 09:44:26 51°7.082 2°30.419 -999 -999 -999 -999
2007-06-18 09:45:26 51°6.862 2°30.315 -999 -999 -999 -999
2007-06-18 09:46:26 51°6.652 2°30.396 -999 -999 -999 -999
2007-06-18 09:47:26 51°6.443 2°30.466 -999 -999 -999 -999
2007-06-18 09:48:26 51°6.229 2°30.483 -999 -999 -999 -999
2007-06-18 09:49:26 51°6.039 2°30.272 -999 -999 -999 -999
2007-06-18 09:50:26 51°5.87 2°30.023 -999 -999 -999 -999
2007-06-18 09:51:26 51°5.737 2°29.719 -999 -999 -999 -999
2007-06-18 09:52:26 51°5.577 2°29.446 -999 -999 -999 -999
2007-06-18 09:53:26 51°5.409 2°29.184 -999 -999 -999 -999
2007-06-18 09:54:26 51°5.247 2°28.905 -999 -999 -999 -999
2007-06-18 09:55:26 51°5.083 2°28.622 -999 -999 -999 -999
2007-06-18 09:56:26 51°4.984 2°28.278 -999 -999 -999 -999
2007-06-18 09:57:26 51°4.921 2°27.908 -999 -999 -999 -999
2007-06-18 09:58:26 51°4.868 2°27.538 -999 -999 -999 -999
2007-06-18 09:59:26 51°4.815 2°27.17 -999 -999 -999 -999
2007-06-18 10:00:26 51°4.763 2°26.811 -999 -999 -999 -999
2007-06-18 10:01:26 51°4.712 2°26.452 -999 -999 -999 -999
2007-06-18 10:02:26 51°4.66 2°26.093 -999 -999 -999 -999
2007-06-18 10:03:26 51°4.607 2°25.731 -999 -999 -999 -999
2007-06-18 10:04:26 51°4.554 2°25.367 -999 -999 -999 -999
2007-06-18 10:05:26 51°4.503 2°24.996 -999 -999 -999 -999
2007-06-18 10:06:26 51°4.45 2°24.623 -999 -999 -999 -999
2007-06-18 10:07:26 51°4.404 2°24.245 -999 -999 -999 -999
2007-06-18 10:08:26 51°4.386 2°23.86 -999 -999 -999 -999
2007-06-18 10:09:26 51°4.365 2°23.482 -999 -999 -999 -999
2007-06-18 10:10:26 51°4.344 2°23.104 -999 -999 -999 -999
2007-06-18 10:11:26 51°4.318 2°22.73 -999 -999 -999 -999
2007-06-18 10:12:26 51°4.284 2°22.355 -999 -999 -999 -999
2007-06-18 10:13:26 51°4.248 2°21.974 -999 -999 -999 -999
2007-06-18 10:14:26 51°4.213 2°21.591 -999 -999 -999 -999
2007-06-18 10:15:26 51°4.177 2°21.206 -999 -999 -999 -999
2007-06-18 10:16:26 51°4.141 2°20.82 -999 -999 -999 -999
2007-06-18 10:17:26 51°4.104 2°20.437 -999 -999 -999 -999
2007-06-18 10:18:26 51°4.068 2°20.058 -999 -999 -999 -999
2007-06-18 10:19:26 51°4.035 2°19.679 -999 -999 -999 -999
2007-06-18 10:20:26 51°4.003 2°19.3 -999 -999 -999 -999
2007-06-18 10:21:26 51°3.983 2°18.918 -999 -999 -999 -999
2007-06-18 10:22:26 51°3.963 2°18.536 -999 -999 -999 -999
2007-06-18 10:23:26 51°3.944 2°18.156 -999 -999 -999 -999
2007-06-18 10:24:26 51°3.923 2°17.778 -999 -999 -999 -999
2007-06-18 10:25:26 51°3.9 2°17.4 -999 -999 -999 -999
2007-06-18 10:26:26 51°3.878 2°17.024 -999 -999 -999 -999
2007-06-18 10:27:26 51°3.855 2°16.648 -999 -999 -999 -999
2007-06-18 10:28:26 51°3.832 2°16.273 -999 -999 -999 -999
2007-06-18 10:29:26 51°3.81 2°15.899 -999 -999 -999 -999
2007-06-18 10:30:26 51°3.784 2°15.527 -999 -999 -999 -999
2007-06-18 10:31:26 51°3.761 2°15.155 -999 -999 -999 -999
2007-06-18 10:32:26 51°3.735 2°14.784 -999 -999 -999 -999
2007-06-18 10:33:26 51°3.711 2°14.415 -999 -999 -999 -999
2007-06-18 10:34:26 51°3.686 2°14.045 -999 -999 -999 -999
2007-06-18 10:35:26 51°3.66 2°13.674 -999 -999 -999 -999
2007-06-18 10:36:26 51°3.617 2°13.306 -999 -999 -999 -999
2007-06-18 10:37:26 51°3.572 2°12.939 -999 -999 -999 -999
2007-06-18 10:38:26 51°3.531 2°12.572 -999 -999 -999 -999
2007-06-18 10:39:26 51°3.492 2°12.208 -999 -999 -999 -999
2007-06-18 10:40:26 51°3.454 2°11.844 -999 -999 -999 -999
2007-06-18 10:41:26 51°3.426 2°11.475 -999 -999 -999 -999
2007-06-18 10:42:26 51°3.399 2°11.104 -999 -999 -999 -999
2007-06-18 10:43:26 51°3.379 2°10.732 -999 -999 -999 -999
2007-06-18 10:44:26 51°3.373 2°10.36 -999 -999 -999 -999
2007-06-18 10:45:26 51°3.498 2°10.068 -999 -999 -999 -999
2007-06-18 10:46:26 51°3.693 2°9.925 -999 -999 -999 -999
2007-06-18 10:47:26 51°3.894 2°9.805 -999 -999 -999 -999
2007-06-18 10:48:26 51°4.094 2°9.684 -999 -999 -999 -999
2007-06-18 10:49:26 51°4.294 2°9.563 -999 -999 -999 -999
2007-06-18 10:50:26 51°4.49 2°9.448 -999 -999 -999 -999
2007-06-18 10:51:26 51°4.681 2°9.329 -999 -999 -999 -999
2007-06-18 10:52:26 51°4.868 2°9.18 -999 -999 -999 -999
2007-06-18 10:53:26 51°5.053 2°9.013 -999 -999 -999 -999
2007-06-18 10:54:27 51°5.242 2°8.849 -999 -999 -999 -999
2007-06-18 10:55:27 51°5.432 2°8.689 -999 -999 -999 -999
2007-06-18 10:56:27 51°5.623 2°8.53 -999 -999 -999 -999
2007-06-18 10:57:27 51°5.806 2°8.372 -999 -999 -999 -999
2007-06-18 10:58:27 51°5.985 2°8.216 -999 -999 -999 -999
2007-06-18 10:59:27 51°6.164 2°8.057 -999 -999 -999 -999
2007-06-18 11:00:27 51°6.342 2°7.891 -999 -999 -999 -999
2007-06-18 11:01:27 51°6.531 2°7.792 -999 -999 -999 -999
2007-06-18 11:02:27 51°6.726 2°7.808 -999 -999 -999 -999
2007-06-18 11:03:27 51°6.919 2°7.865 -999 -999 -999 -999
2007-06-18 11:04:27 51°7.105 2°7.956 -999 -999 -999 -999
2007-06-18 11:05:27 51°7.238 2°8.169 -999 -999 -999 -999
2007-06-18 11:06:27 51°7.315 2°8.448 -999 -999 -999 -999
2007-06-18 11:07:27 51°7.41 2°8.713 -999 -999 -999 -999
2007-06-18 11:08:27 51°7.507 2°8.976 -999 -999 -999 -999
2007-06-18 11:09:27 51°7.607 2°9.237 -999 -999 -999 -999
2007-06-18 11:10:27 51°7.699 2°9.507 -999 -999 -999 -999
2007-06-18 11:11:27 51°7.791 2°9.778 -999 -999 -999 -999
2007-06-18 11:12:27 51°7.882 2°10.051 -999 -999 -999 -999
2007-06-18 11:13:27 51°7.976 2°10.322 -999 -999 -999 -999
2007-06-18 11:14:27 51°8.069 2°10.593 -999 -999 -999 -999
2007-06-18 11:15:27 51°8.163 2°10.862 -999 -999 -999 -999
2007-06-18 11:16:27 51°8.258 2°11.134 -999 -999 -999 -999
2007-06-18 11:17:27 51°8.352 2°11.406 -999 -999 -999 -999
2007-06-18 11:18:27 51°8.449 2°11.676 -999 -999 -999 -999
2007-06-18 11:19:27 51°8.544 2°11.948 -999 -999 -999 -999
2007-06-18 11:20:27 51°8.643 2°12.219 -999 -999 -999 -999
2007-06-18 11:21:27 51°8.737 2°12.495 -999 -999 -999 -999
2007-06-18 11:22:27 51°8.826 2°12.775 -999 -999 -999 -999
2007-06-18 11:23:27 51°8.915 2°13.058 -999 -999 -999 -999
2007-06-18 11:24:26 51°9.004 2°13.333 -999 -999 -999 -999
2007-06-18 11:25:27 51°9.097 2°13.618 -999 -999 -999 -999
2007-06-18 11:26:27 51°9.189 2°13.901 -999 -999 -999 -999
2007-06-18 11:27:27 51°9.258 2°14.116 -999 -999 -999 -999
2007-06-18 11:28:27 51°9.329 2°14.085 -999 -999 -999 -999
2007-06-18 11:29:27 51°9.311 2°13.937 -999 -999 -999 -999
2007-06-18 11:30:27 51°9.228 2°13.739 -999 -999 -999 -999
2007-06-18 11:31:27 51°9.167 2°13.641 -999 -999 -999 -999
2007-06-18 11:32:27 51°9.106 2°13.477 -999 -999 -999 -999
2007-06-18 11:33:27 51°9.213 2°13.327 -999 -999 -999 -999
2007-06-18 11:34:27 51°9.343 2°13.48 -999 -999 -999 -999
2007-06-18 11:35:27 51°9.376 2°13.797 -999 -999 -999 -999
2007-06-18 11:36:27 51°9.426 2°14.119 -999 -999 -999 -999
2007-06-18 11:37:27 51°9.474 2°14.441 -999 -999 -999 -999
2007-06-18 11:38:27 51°9.537 2°14.757 -999 -999 -999 -999
2007-06-18 11:39:27 51°9.599 2°15.076 -999 -999 -999 -999
2007-06-18 11:40:27 51°9.66 2°15.394 -999 -999 -999 -999
2007-06-18 11:41:27 51°9.721 2°15.715 -999 -999 -999 -999
2007-06-18 11:42:27 51°9.782 2°16.037 -999 -999 -999 -999
2007-06-18 11:43:27 51°9.845 2°16.362 -999 -999 -999 -999
2007-06-18 11:44:27 51°9.905 2°16.687 -999 -999 -999 -999
2007-06-18 11:45:27 51°9.984 2°17 -999 -999 -999 -999
2007-06-18 11:46:27 51°10.075 2°17.302 -999 -999 -999 -999
2007-06-18 11:47:27 51°10.181 2°17.581 -999 -999 -999 -999
2007-06-18 11:48:27 51°10.335 2°17.79 -999 -999 -999 -999
2007-06-18 11:49:27 51°10.499 2°17.981 -999 -999 -999 -999
2007-06-18 11:50:27 51°10.666 2°18.167 -999 -999 -999 -999
2007-06-18 11:51:27 51°10.833 2°18.354 -999 -999 -999 -999
2007-06-18 11:52:27 51°11.001 2°18.543 -999 -999 -999 -999
2007-06-18 11:53:27 51°11.167 2°18.734 -999 -999 -999 -999
2007-06-18 11:54:27 51°11.334 2°18.925 -999 -999 -999 -999
2007-06-18 11:55:27 51°11.5 2°19.118 -999 -999 -999 -999
2007-06-18 11:56:27 51°11.666 2°19.316 -999 -999 -999 -999
2007-06-18 11:57:27 51°11.832 2°19.515 -999 -999 -999 -999
2007-06-18 11:58:27 51°11.997 2°19.714 -999 -999 -999 -999
2007-06-18 11:59:27 51°12.162 2°19.911 -999 -999 -999 -999
2007-06-18 12:00:27 51°12.328 2°20.109 -999 -999 -999 -999
2007-06-18 12:01:27 51°12.497 2°20.297 -999 -999 -999 -999
2007-06-18 12:02:27 51°12.672 2°20.477 -999 -999 -999 -999
2007-06-18 12:03:27 51°12.847 2°20.657 -999 -999 -999 -999
2007-06-18 12:04:26 51°13.019 2°20.836 -999 -999 -999 -999
2007-06-18 12:05:26 51°13.196 2°21.018 -999 -999 -999 -999
2007-06-18 12:06:26 51°13.373 2°21.2 -999 -999 -999 -999
2007-06-18 12:07:26 51°13.55 2°21.384 -999 -999 -999 -999
2007-06-18 12:08:26 51°13.727 2°21.57 -999 -999 -999 -999
2007-06-18 12:09:26 51°13.906 2°21.756 -999 -999 -999 -999
2007-06-18 12:10:26 51°14.085 2°21.944 -999 -999 -999 -999
2007-06-18 12:11:26 51°14.263 2°22.132 -999 -999 -999 -999
2007-06-18 12:12:26 51°14.441 2°22.32 -999 -999 -999 -999
2007-06-18 12:13:26 51°14.62 2°22.507 -999 -999 -999 -999
2007-06-18 12:14:26 51°14.798 2°22.695 -999 -999 -999 -999
2007-06-18 12:15:26 51°14.976 2°22.883 -999 -999 -999 -999
2007-06-18 12:16:26 51°15.154 2°23.07 -999 -999 -999 -999
2007-06-18 12:17:26 51°15.331 2°23.255 -999 -999 -999 -999
2007-06-18 12:18:26 51°15.508 2°23.441 -999 -999 -999 -999
2007-06-18 12:19:26 51°15.686 2°23.626 -999 -999 -999 -999
2007-06-18 12:20:26 51°15.865 2°23.81 -999 -999 -999 -999
2007-06-18 12:21:26 51°16.044 2°23.999 -999 -999 -999 -999
2007-06-18 12:22:26 51°16.224 2°24.186 -999 -999 -999 -999
2007-06-18 12:23:26 51°16.404 2°24.373 -999 -999 -999 -999
2007-06-18 12:24:26 51°16.586 2°24.558 -999 -999 -999 -999
2007-06-18 12:25:27 51°16.772 2°24.747 -999 -999 -999 -999
2007-06-18 12:26:26 51°16.942 2°24.954 -999 -999 -999 -999
2007-06-18 12:27:26 51°17.107 2°25.184 -999 -999 -999 -999
2007-06-18 12:28:26 51°17.274 2°25.415 -999 -999 -999 -999
2007-06-18 12:29:26 51°17.442 2°25.646 -999 -999 -999 -999
2007-06-18 12:30:26 51°17.617 2°25.865 -999 -999 -999 -999
2007-06-18 12:31:26 51°17.79 2°26.084 -999 -999 -999 -999
2007-06-18 12:32:26 51°17.964 2°26.303 -999 -999 -999 -999
2007-06-18 12:33:26 51°18.14 2°26.52 -999 -999 -999 -999
2007-06-18 12:34:27 51°18.318 2°26.744 -999 -999 -999 -999
2007-06-18 12:35:26 51°18.493 2°26.96 -999 -999 -999 -999
2007-06-18 12:36:26 51°18.672 2°27.177 -999 -999 -999 -999
2007-06-18 12:37:27 51°18.854 2°27.399 -999 -999 -999 -999
2007-06-18 12:38:26 51°19.03 2°27.615 -999 -999 -999 -999
2007-06-18 12:39:27 51°19.213 2°27.838 -999 -999 -999 -999
2007-06-18 12:40:27 51°19.394 2°28.059 -999 -999 -999 -999
2007-06-18 12:41:26 51°19.57 2°28.277 -999 -999 -999 -999
2007-06-18 12:42:26 51°19.75 2°28.497 -999 -999 -999 -999
2007-06-18 12:43:26 51°19.93 2°28.715 -999 -999 -999 -999
2007-06-18 12:44:26 51°20.109 2°28.938 -999 -999 -999 -999
2007-06-18 12:45:26 51°20.223 2°29.244 -999 -999 -999 -999
2007-06-18 12:46:26 51°20.238 2°29.601 -999 -999 -999 -999
2007-06-18 12:47:26 51°20.257 2°29.963 -999 -999 -999 -999
2007-06-18 12:48:26 51°20.268 2°30.331 -999 -999 -999 -999
2007-06-18 12:49:26 51°20.281 2°30.708 -999 -999 -999 -999
2007-06-18 12:50:27 51°20.293 2°31.093 -999 -999 -999 -999
2007-06-18 12:51:27 51°20.306 2°31.464 -999 -999 -999 -999
2007-06-18 12:52:27 51°20.324 2°31.833 -999 -999 -999 -999
2007-06-18 12:53:27 51°20.358 2°32.189 -999 -999 -999 -999
2007-06-18 12:54:27 51°20.417 2°32.535 -999 -999 -999 -999
2007-06-18 12:55:27 51°20.476 2°32.884 -999 -999 -999 -999
2007-06-18 12:56:27 51°20.535 2°33.233 -999 -999 -999 -999
2007-06-18 12:57:27 51°20.593 2°33.585 -999 -999 -999 -999
2007-06-18 12:58:27 51°20.651 2°33.94 -999 -999 -999 -999
2007-06-18 12:59:27 51°20.718 2°34.291 -999 -999 -999 -999
2007-06-18 13:00:27 51°20.846 2°34.583 -999 -999 -999 -999
2007-06-18 13:01:27 51°21.015 2°34.825 -999 -999 -999 -999
2007-06-18 13:02:27 51°21.183 2°35.072 -999 -999 -999 -999
2007-06-18 13:03:27 51°21.35 2°35.327 -999 -999 -999 -999
2007-06-18 13:04:27 51°21.517 2°35.583 -999 -999 -999 -999
2007-06-18 13:05:27 51°21.686 2°35.833 -999 -999 -999 -999
2007-06-18 13:06:27 51°21.89 2°35.994 -999 -999 -999 -999
2007-06-18 13:07:27 51°22.093 2°36.162 -999 -999 -999 -999
2007-06-18 13:08:27 51°22.293 2°36.338 -999 -999 -999 -999
2007-06-18 13:09:27 51°22.488 2°36.527 -999 -999 -999 -999
2007-06-18 13:10:27 51°22.668 2°36.753 -999 -999 -999 -999
2007-06-18 13:11:27 51°22.812 2°37.038 -999 -999 -999 -999
2007-06-18 13:12:27 51°22.936 2°37.349 -999 -999 -999 -999
2007-06-18 13:13:27 51°23.063 2°37.658 -999 -999 -999 -999
2007-06-18 13:14:27 51°23.192 2°37.966 -999 -999 -999 -999
2007-06-18 13:15:27 51°23.321 2°38.274 -999 -999 -999 -999
2007-06-18 13:16:27 51°23.454 2°38.58 -999 -999 -999 -999
2007-06-18 13:17:27 51°23.589 2°38.886 -999 -999 -999 -999
2007-06-18 13:18:27 51°23.724 2°39.193 -999 -999 -999 -999
2007-06-18 13:19:27 51°23.847 2°39.513 -999 -999 -999 -999
2007-06-18 13:20:27 51°23.947 2°39.851 -999 -999 -999 -999
2007-06-18 13:21:27 51°24.048 2°40.187 -999 -999 -999 -999
2007-06-18 13:22:27 51°24.152 2°40.52 -999 -999 -999 -999
2007-06-18 13:23:27 51°24.257 2°40.852 -999 -999 -999 -999
2007-06-18 13:24:27 51°24.362 2°41.185 -999 -999 -999 -999
2007-06-18 13:25:27 51°24.468 2°41.516 -999 -999 -999 -999
2007-06-18 13:26:27 51°24.574 2°41.849 -999 -999 -999 -999
2007-06-18 13:27:27 51°24.678 2°42.182 -999 -999 -999 -999
2007-06-18 13:28:27 51°24.782 2°42.519 -999 -999 -999 -999
2007-06-18 13:29:27 51°24.886 2°42.857 -999 -999 -999 -999
2007-06-18 13:30:27 51°24.99 2°43.197 -999 -999 -999 -999
2007-06-18 13:31:27 51°25.095 2°43.537 -999 -999 -999 -999
2007-06-18 13:32:27 51°25.198 2°43.878 -999 -999 -999 -999
2007-06-18 13:33:27 51°25.289 2°44.226 -999 -999 -999 -999
2007-06-18 13:34:27 51°25.365 2°44.58 -999 -999 -999 -999
2007-06-18 13:35:27 51°25.444 2°44.931 -999 -999 -999 -999
2007-06-18 13:36:27 51°25.523 2°45.285 -999 -999 -999 -999
2007-06-18 13:37:27 51°25.605 2°45.636 -999 -999 -999 -999
2007-06-18 13:38:27 51°25.687 2°45.987 -999 -999 -999 -999
2007-06-18 13:39:27 51°25.77 2°46.338 -999 -999 -999 -999
2007-06-18 13:40:27 51°25.853 2°46.692 -999 -999 -999 -999
2007-06-18 13:41:27 51°25.934 2°47.047 -999 -999 -999 -999
2007-06-18 13:42:27 51°26.017 2°47.404 -999 -999 -999 -999
2007-06-18 13:43:27 51°26.098 2°47.764 -999 -999 -999 -999
2007-06-18 13:44:27 51°26.107 2°48.134 -999 -999 -999 -999
2007-06-18 13:45:27 51°25.992 2°48.432 -999 -999 -999 -999
2007-06-18 13:46:27 51°25.833 2°48.658 -999 -999 -999 -999
2007-06-18 13:47:27 51°25.676 2°48.887 -999 -999 -999 -999
2007-06-18 13:48:27 51°25.521 2°49.125 -999 -999 -999 -999
2007-06-18 13:49:27 51°25.359 2°49.351 -999 -999 -999 -999
2007-06-18 13:50:27 51°25.172 2°49.499 -999 -999 -999 -999
2007-06-18 13:51:27 51°24.981 2°49.618 -999 -999 -999 -999
2007-06-18 13:52:27 51°24.79 2°49.743 -999 -999 -999 -999
2007-06-18 13:53:27 51°24.601 2°49.872 -999 -999 -999 -999
2007-06-18 13:54:27 51°24.411 2°50.001 -999 -999 -999 -999
2007-06-18 13:55:27 51°24.216 2°50.076 -999 -999 -999 -999
2007-06-18 13:56:27 51°24.021 2°50.057 -999 -999 -999 -999
2007-06-18 13:57:27 51°23.84 2°49.962 -999 -999 -999 -999
2007-06-18 13:58:27 51°23.657 2°49.866 -999 -999 -999 -999
2007-06-18 13:59:27 51°23.472 2°49.777 -999 -999 -999 -999
2007-06-18 14:00:27 51°23.286 2°49.691 -999 -999 -999 -999
2007-06-18 14:01:27 51°23.102 2°49.6 -999 -999 -999 -999
2007-06-18 14:02:27 51°22.924 2°49.492 -999 -999 -999 -999
2007-06-18 14:03:27 51°22.745 2°49.386 -999 -999 -999 -999
2007-06-18 14:04:27 51°22.578 2°49.248 -999 -999 -999 -999
2007-06-18 14:05:27 51°22.438 2°49.059 -999 -999 -999 -999
2007-06-18 14:06:27 51°22.314 2°48.855 -999 -999 -999 -999
2007-06-18 14:07:27 51°22.191 2°48.65 -999 -999 -999 -999
2007-06-18 14:08:27 51°22.049 2°48.482 -999 -999 -999 -999
2007-06-18 14:09:27 51°21.875 2°48.386 -999 -999 -999 -999
2007-06-18 14:10:27 51°21.698 2°48.292 -999 -999 -999 -999
2007-06-18 14:11:27 51°21.521 2°48.193 -999 -999 -999 -999
2007-06-18 14:12:27 51°21.345 2°48.093 -999 -999 -999 -999
2007-06-18 14:13:27 51°21.168 2°47.993 -999 -999 -999 -999
2007-06-18 14:14:27 51°20.989 2°47.893 -999 -999 -999 -999
2007-06-18 14:15:27 51°20.81 2°47.79 -999 -999 -999 -999
2007-06-18 14:16:27 51°20.631 2°47.688 -999 -999 -999 -999
2007-06-18 14:17:27 51°20.45 2°47.585 -999 -999 -999 -999
2007-06-18 14:18:27 51°20.27 2°47.482 -999 -999 -999 -999
2007-06-18 14:19:27 51°20.091 2°47.379 -999 -999 -999 -999
2007-06-18 14:20:27 51°19.914 2°47.278 -999 -999 -999 -999
2007-06-18 14:21:27 51°19.737 2°47.171 -999 -999 -999 -999
2007-06-18 14:22:27 51°19.559 2°47.065 -999 -999 -999 -999
2007-06-18 14:23:27 51°19.382 2°46.958 -999 -999 -999 -999
2007-06-18 14:24:27 51°19.205 2°46.85 -999 -999 -999 -999
2007-06-18 14:25:27 51°19.028 2°46.74 -999 -999 -999 -999
2007-06-18 14:26:27 51°18.849 2°46.636 -999 -999 -999 -999
2007-06-18 14:27:27 51°18.672 2°46.528 -999 -999 -999 -999
2007-06-18 14:28:27 51°18.495 2°46.423 -999 -999 -999 -999
2007-06-18 14:29:27 51°18.318 2°46.319 -999 -999 -999 -999
2007-06-18 14:30:27 51°18.142 2°46.214 -999 -999 -999 -999
2007-06-18 14:31:27 51°17.965 2°46.11 -999 -999 -999 -999
2007-06-18 14:32:27 51°17.78 2°46.051 -999 -999 -999 -999
2007-06-18 14:33:27 51°17.589 2°46.002 -999 -999 -999 -999
2007-06-18 14:34:27 51°17.399 2°45.951 -999 -999 -999 -999
2007-06-18 14:35:27 51°17.21 2°45.897 -999 -999 -999 -999
2007-06-18 14:36:27 51°17.02 2°45.842 -999 -999 -999 -999
2007-06-18 14:37:27 51°16.826 2°45.842 -999 -999 -999 -999
2007-06-18 14:38:27 51°16.629 2°45.876 -999 -999 -999 -999
2007-06-18 14:39:27 51°16.457 2°46.053 -999 -999 -999 -999
2007-06-18 14:40:27 51°16.299 2°46.29 -999 -999 -999 -999
2007-06-18 14:41:27 51°16.128 2°46.501 -999 -999 -999 -999
2007-06-18 14:42:27 51°15.943 2°46.681 -999 -999 -999 -999
2007-06-18 14:43:27 51°15.761 2°46.867 -999 -999 -999 -999
2007-06-18 14:44:27 51°15.575 2°47.046 -999 -999 -999 -999
2007-06-18 14:45:27 51°15.39 2°47.22 -999 -999 -999 -999
2007-06-18 14:46:27 51°15.216 2°47.418 -999 -999 -999 -999
2007-06-18 14:47:27 51°15.142 2°47.753 -999 -999 -999 -999
2007-06-18 14:48:27 51°15.157 2°48.128 -999 -999 -999 -999
2007-06-18 14:49:27 51°15.179 2°48.509 -999 -999 -999 -999
2007-06-18 14:50:27 51°15.202 2°48.89 -999 -999 -999 -999
2007-06-18 14:51:27 51°15.225 2°49.271 -999 -999 -999 -999
2007-06-18 14:52:27 51°15.247 2°49.651 -999 -999 -999 -999
2007-06-18 14:53:27 51°15.269 2°50.035 -999 -999 -999 -999
2007-06-18 14:54:27 51°15.292 2°50.42 -999 -999 -999 -999
2007-06-18 14:55:27 51°15.312 2°50.805 -999 -999 -999 -999
2007-06-18 14:56:27 51°15.326 2°51.19 -999 -999 -999 -999
2007-06-18 14:57:27 51°15.319 2°51.575 -999 -999 -999 -999
2007-06-18 14:58:27 51°15.23 2°51.915 -999 -999 -999 -999
2007-06-18 14:59:27 51°15.127 2°52.243 -999 -999 -999 -999
2007-06-18 15:00:27 51°15.024 2°52.566 -999 -999 -999 -999
2007-06-18 15:01:27 51°14.923 2°52.893 -999 -999 -999 -999
2007-06-18 15:02:27 51°14.831 2°53.229 -999 -999 -999 -999
2007-06-18 15:03:27 51°14.74 2°53.56 -999 -999 -999 -999
2007-06-18 15:04:27 51°14.657 2°53.898 -999 -999 -999 -999
2007-06-18 15:05:27 51°14.578 2°54.245 -999 -999 -999 -999
2007-06-18 15:06:27 51°14.492 2°54.582 -999 -999 -999 -999
2007-06-18 15:07:27 51°14.404 2°54.909 -999 -999 -999 -999
2007-06-18 15:08:27 51°14.296 2°55.193 -999 -999 -999 -999
2007-06-18 15:09:27 51°14.199 2°55.354 -999 -999 -999 -999
2007-06-18 15:10:27 51°14.117 2°55.422 -999 -999 -999 -999
2007-06-18 15:11:27 51°14.033 2°55.485 -999 -999 -999 -999
2007-06-18 15:12:27 51°13.922 2°55.567 -999 -999 -999 -999
2007-06-18 15:13:27 51°13.814 2°55.648 -999 -999 -999 -999
2007-06-18 15:14:27 51°13.727 2°55.758 -999 -999 -999 -999
2007-06-18 15:15:27 51°13.675 2°55.866 -999 -999 -999 -999
2007-06-18 15:16:27 51°13.634 2°55.956 -999 -999 -999 -999
2007-06-18 15:17:27 51°13.608 2°56.034 -999 -999 -999 -999
2007-06-18 15:18:27 51°13.598 2°56.079 -999 -999 -999 -999
2007-06-18 15:19:27 51°13.597 2°56.09 -999 -999 -999 -999